Regional Weather Roundup
Issued by NWS Grand Forks, ND

Home | Current Version | Previous Version | Graphics & Text | Print | Product List | Glossary On
Versions: 1 2 3 4 5 6 7 8 9 10 11 12 13 14 15 16 17 18 19 20 21 22 23 24 25 26 27 28 29 30 31 32 33 34 35 36 37 38 39 40 41 42 43 44 45 46 47 48 49 50
990
ASUS43 KFGF 231410
RWRFGF
PRAIRIE TO PINES  WEATHER ROUNDUP
NATIONAL WEATHER SERVICE EASTERN NORTH DAKOTA/GRAND FORKS ND
900 AM CDT THU MAR 23 2017

 **SATELLITE DATA USED TO AUGMENT SKY COVER AT AUTOMATED STATIONS**
 *****  WEATHER ACROSS EASTERN NORTH DAKOTA  *****

CITY           SKY/WX    TMP DP  RH WIND       PRES   REMARKS
GRAND FORKS    CLOUDY    35  23  61 S14       29.86F
GRAND FRKS AFB FAIR      34  26  73 S12       29.86S
DEVILS LAKE    PTSUNNY   32  27  81 S5        29.80F
FARGO          FAIR      38  26  62 S23G32    29.88F
WAHPETON ARPT  FAIR      36  27  69 SE23      29.89F
$$

 ***** WEATHER ACROSS CENTRAL AND WESTERN NORTH DAKOTA  *****

CITY           SKY/WX    TMP DP  RH WIND       PRES   REMARKS
BISMARCK       LGT RAIN  34  32  92 N8        29.73F
MINOT          FAIR      36  30  79 S6        29.73F
JAMESTOWN      LGT RAIN  33  30  88 S9        29.81R FOG
MINOT AFB      FAIR      33  30  90 S5        29.72F
GARRISON         N/A     33  29  85 CALM      29.73F
WILLISTON      FAIR      34  32  92 CALM      29.74S FOG
DICKINSON      CLOUDY    38  33  82 W3        29.70R
HETTINGER      CLOUDY    39  37  92 E6        29.71S
$$

 *****  OTHER AIRPORT OBSERVATIONS IN OUR AREA  *****

CITY           SKY/WX    TMP DP  RH WIND       PRES   REMARKS
WALHALLA       NOT AVBL
GRAFTON AIRPOR FAIR      32  28  86 S13       29.88S WCI  22
VALLEY CITY AR LGT RAIN  32  32 100 S10       29.84F WCI  24
CANDO          NOT AVBL
CAVALIER APRT  NOT AVBL
GWINNER        SUNNY     36  30  80 MISG      29.85R
SHEYENNE NWR     N/A     37  27  66 SE13      29.95S
ROLLA          FAIR      27  27 100 S13       29.77S WCI  16
 ***** THE ABOVE OBSERVATIONS ARE NON NWS ARE NOT QUALITY
       CONTROLLED AND MAY MIS-REPORT RAIN FOR SNOW...
$$

  *****  WEATHER ACROSS NORTHERN MINNESOTA  *****

CITY           SKY/WX    TMP DP  RH WIND       PRES   REMARKS
FLAG ISLAND    FAIR      28  21  74 S14       29.90F WCI  17
WARROAD        FAIR      34  25  69 S9        29.89F
ROSEAU         FAIR      36  25  64 S10       29.88F
HALLOCK        FAIR      34  28  80 S16       29.85F WCI  23
THF RVR FALLS  FAIR      36  24  62 S16       29.89F
BAUDETTE       FAIR      35  20  54 S15G25    29.91F
WASKISH        FAIR      36  23  60 S9G20     29.92F
CROOKSTON      FAIR      36  27  69 S12       29.89F
GREENBUSH NDAW   N/A     36  27  69 S12         N/A
$$
  *****  WEATHER ACROSS CENTRAL AND WEST MINNESOTA  *****

CITY           SKY/WX    TMP DP  RH WIND       PRES   REMARKS
FOSSTON        FAIR      36  23  60 S14G20    29.90F
BEMIDJI        FAIR      35  21  57 S15G21    29.94F
PARK RAPIDS    FAIR      36  20  52 S18       29.95F
ELBOW LAKE     CLOUDY    36  24  62 SE25      29.93F
WADENA         CLOUDY    36  21  55 S15G21    29.97F
DETROIT LAKES  FAIR      36  27  69 S17       29.93F
MOORHEAD       FAIR      36  25  64 SE21G28   29.89F
FERGUS FALLS   FAIR      37  25  60 SE23G31   29.96F
MORRIS MN      CLOUDY    37  25  60 SE22      29.93F
STAPLES        CLOUDY    36  21  55 S13G20    29.99F
$$
  *****  WEATHER ELSEWHERE ACROSS MINNESOTA  *****

CITY           SKY/WX    TMP DP  RH WIND       PRES   REMARKS
DULUTH         CLOUDY    30  26  85 SE14      30.07F WCI  19
INTRNTL FALLS  FAIR      34  21  59 VRB6      29.96F
ELY            CLOUDY    30  23  74 S10G20    30.04F WCI  21
CLOQUET        CLOUDY    30  23  74 SE9       30.07F WCI  22
WHEATON        FAIR      37  27  65 SE23G29   29.91F
BRAINERD       CLOUDY    36  21  54 S13       30.02F
HIBBING        CLOUDY    30  22  72 S9G18     30.04F WCI  22
ALEXANDRIA     CLOUDY    36  23  59 S18       29.98F
SAINT CLOUD    CLOUDY    37  23  56 SE16      30.04F
MINNEAPOLIS    CLOUDY    38  22  52 SE12      30.11F
$$

  *****  WEATHER ACROSS SOUTH DAKOTA  *****

CITY           SKY/WX    TMP DP  RH WIND       PRES   REMARKS
SIOUX FALLS    CLOUDY    41  25  53 SE17G23   29.92F
BROOKINGS      FAIR      37  25  61 SE20G25   29.89F
WATERTOWN      FAIR      36  26  67 S17       29.86F
HURON          PTSUNNY   41  29  62 SE21G31   29.81F
SISSETON         N/A     38  29  70 S16       29.87F
ABERDEEN       FAIR      39  27  62 S17G25    29.82R
MITCHELL       CLOUDY    43  29  57 SE21G28   29.84F
PIERRE         FAIR      42  33  70 SE13      29.69F
MOBRIDGE       FAIR      43  30  60 SE8       29.73R
RAPID CITY     FAIR      47  40  76 N16       29.65F
$$

  *****  SOME WEATHER IN NEARBY STATES *****

CITY           SKY/WX    TMP DP  RH WIND       PRES   REMARKS
GLASGOW MT     FAIR      33  31  92 NW10      29.75R WCI  25
GREAT FALLS MT FAIR      33  27  78 SW12      29.84R WCI  24
CHEYENNE WY    FAIR      44  29  55 W7        29.73S
SCOTTSBLUFF NE FAIR      37  33  85 E7        29.69S
OMAHA NE       CLOUDY    48  30  49 SE20      29.99S
DES MOINES IA  CLOUDY    43  25  49 SE17      30.12F
DAVENPORT IA   CLOUDY    36  23  59 SE15      30.28F
CHICAGO IL     CLOUDY    35  19  52 SE14      30.40S
EAU CLAIRE WI  CLOUDY    34  19  54 SE14      30.19F WCI  25
LA CROSSE WI   CLOUDY    36  22  56 SE14      30.23F
$$

  *****  SOME NATIONAL WEATHER *****

CITY           SKY/WX    TMP DP  RH WIND       PRES   REMARKS
LA GUARDIA NY  FAIR      30   3  31 N8        30.61R WCI  22
RALEIGH NC     FAIR      43  14  31 NE9       30.60R
ATLANTA GA     PTSUNNY   53  37  54 E20       30.42R
NEW ORLEANS LA FAIR      70  61  73 E9        30.20R
OKLAHOMA CITY  PTSUNNY   58  54  86 S21G30    29.97R
ALBUQUERQUE NM FAIR      57  16  20 S14       29.86S
SALT LAKE CITY LGT RAIN  39  37  92 SE8       29.74S
LOS ANGELES CA FAIR      56  38  50 NW14G20   30.04R
BOISE ID       FAIR      37  31  78 W12       29.97R
SEATTLE WA     FAIR      41  37  86 SE10      30.08S
$$

*** WEATHER ACROSS MANITOBA...SASKATCHEWAN AND ONTARIO ***
                ***ONTARIO***

CITY           SKY/WX    TMP DP  RH WIND       PRES   REMARKS
GERALDTON      CLOUDY    25  21  86 S8        30.18F WCI  16
THUNDER BAY    FLURRIES  32  27  80 S8        30.18F WCI  25
SIOUX LOOKOUT  CLOUDY    28  21  74 S13G21    29.94F WCI  18
TORONTO        MOSUNNY   27  12  54 CALM      30.60R
BIG TROUT LK   FLURRIES  23  19  86 S13G18    29.84F WCI  11
PICKLE LAKE    FLURRIES  23  19  86 S14G23    29.92F WCI  11
DRYDEN         CLOUDY    30  21  69 S15G22    29.93F WCI  19
KENORA         MOSUNNY   32  19  59 S13G21    29.88F WCI  22
$$
                *** MANITOBA***

CITY           SKY/WX    TMP DP  RH WIND       PRES   REMARKS
BRANDON        PTSUNNY   21  19  93 SW7       29.74S WCI  13
DAUPHIN        CLOUDY    36  32  87 W24       29.71S
ISLAND LAKE    NOT AVBL
PILOT MOUND      N/A     28  25  86 S13         N/A  WCI  18
THE PAS        CLOUDY    23  19  86 W15       29.66R WCI  10
THOMPSON       LGT SNOW  23  21  93 NE8       29.61F VSB 3/4 WCI  14
WINNIPEG       PTSUNNY   32  25  74 S22G29    29.80F WCI  19
LYNN LAKE      LGT SNOW  18  16  93 N8        29.68S WCI   7
CHURCHILL      CLOUDY    14   5  67 W3        29.78F
GILLAM         FLURRIES  23  19  86 E3        29.70F
$$
                ***SASKATCHEWAN***

CITY           SKY/WX    TMP DP  RH WIND       PRES   REMARKS
ESTEVAN        PTSUNNY   28  27  93 W3        29.74S
KINDERSLEY     MOCLDY    27  23  86 NE5       29.74S WCI  21
LLOYDMINSTER   FOG       21  21 100 N5        29.76S VSB 1/8 WCI  15
PRINCE ALBERT  MOCLDY    23  18  80 NW15      29.76R WCI  10
REGINA         CLOUDY    30  28  93 N12G17    29.77S WCI  21
YORKTON        SUNNY     28  25  86 W10       29.75R WCI  19
N. BATTLEFORD  FOG       21 N/A N/A W5        29.81R VSB 3/8 WCI  15
LA RONGE       MOCLDY    16  14  93 W8        29.76R WCI   5
SASKATOON      PTCLDY    25  21  86 W10       29.80R WCI  15
SWIFT CURRENT  FOG       28  28 100 S3        29.74R VSB 0
$$
NOTE: THESE ARE AUTOMATED STATIONS WITH LIMITED QUALITY CONTROL
      "FAIR" INDICATES FEW OR NO CLOUDS BELOW 12,000 FEET WITH NO
      SIGNIFICANT WEATHER AND/OR OBSTRUCTIONS TO VISIBILITY.
      SKY/WX - SKY CONDITION AND SIGNIFICANT WEATHER.
      TMP - AIR TEMPERATURE.    DP   - DEWPOINT TEMPERATURE.
      RH  - RELATIVE HUMIDITY.  PRES - PRESSURE.
      HX  - HEAT INDEX.         WCI  - WIND CHILL INDEX.
$




USA.gov is the U.S. government's official web portal to all federal, state and local government web resources and services.